#timestamp,LO_Frequency,Hit,StdDev 
1507957215.2,286046997.2,N
1507957235.1,286046997.4,N
1507957236.0,286046997.4,N
1507957255.8,286046997.5,N
1507957275.6,286046995.4,N
1507957295.5,286046997.1,N
1507957315.3,286046997.6,N
1507957335.1,286046996.1,N
1507957355.9,286046996.4,N
1507957375.7,286046993.4,Y
1507957395.5,286046997.7,P
1507957415.4,286046997.8,P
1507957435.2,286046997.7,P
1507957455.0,286046998.8,Y
1507957455.9,286046998.8,P
1507957475.8,286047000.6,N
1507957495.6,286047004.3,P
1507957515.4,286047000.2,N
1507957535.3,286047001.6,N
1507957555.1,286047002.7,N
1507957556.0,286047002.7,N
1507957575.8,286047001.9,N
1507957595.7,286047002.0,N
1507957615.5,286046999.8,N
1507957635.3,286047000.0,N
1507957655.2,286047001.6,N
1507957675.9,286047001.8,N
1507957695.7,286047001.3,N
1507957715.5,286047001.9,N
1507957735.4,286046999.8,N
1507957755.2,286047002.7,N
1507957775.0,286047000.8,N
1507957775.9,286047000.8,N
1507957795.8,286046999.4,N
1507957815.6,286046997.6,N
1507957835.4,286046997.5,N
1507957855.3,286046999.2,N
1507957875.1,286047002.5,N
1507957876.0,286047002.5,N
1507957895.8,286047003.5,N
1507957915.7,286047003.6,N
1507957935.5,286047000.0,N
1507957955.3,286046999.5,N
1507957975.2,286046996.5,N
1507957995.9,286046996.8,N
1507958015.7,286046995.3,N
1507958035.5,286046996.9,N
1507958055.4,286046997.3,N
1507958075.2,286046995.3,N
1507958095.0,286046997.9,N
1507958095.9,286046997.9,N
1507958115.8,286046998.9,N
1507958135.6,286047000.7,N
1507958155.4,286047000.6,N
1507958175.3,286046999.4,N
1507958195.1,286046997.0,N
1507958196.0,286046997.0,N
1507958215.8,286046997.7,N
1507958235.7,286046995.0,N
1507958255.5,286046997.0,N
1507958275.3,286046998.6,N
1507958295.2,286047000.4,N
1507958315.9,286047001.2,N
1507958335.7,286047000.1,N
1507958355.5,286047002.8,N
1507958375.4,286047000.2,N
1507958395.2,286047001.7,N
1507958415.0,286047005.0,N
1507958415.9,286047005.0,N
1507958435.8,286047008.5,Y
1507958455.6,286047012.4,P
1507958475.4,286047009.3,N
1507958495.3,286047010.1,N
1507958515.1,286047009.6,N
1507958535.8,286047009.8,N
1507958555.7,286047009.6,N
1507958575.5,286047008.9,N
1507958595.3,286047004.8,N
1507958615.2,286047006.7,N
1507958635.9,286047009.9,N
1507958655.7,286047012.4,Y
1507958675.6,286046998.2,P
1507958695.4,286046999.0,N
1507958715.2,286046995.5,N
1507958735.1,286046991.0,N
1507958736.0,286046991.0,N
1507958755.8,286046990.2,N
1507958775.6,286046992.0,N
1507958795.5,286046994.2,N
1507958815.3,286046994.0,N
1507958835.1,286046996.2,N
1507958855.9,286046996.1,N
1507958875.7,286046999.0,N
1507958895.5,286046998.1,N
1507958915.3,286047002.8,N
1507958935.2,286047000.5,N
1507958955.9,286047001.5,N
1507958975.7,286047000.3,N
1507958995.6,286047000.6,N
1507959015.4,286046998.5,N
1507959035.2,286046999.8,N
1507959055.1,286047001.2,N
1507959056.0,286047001.2,N
1507959075.8,286046998.1,N
1507959095.6,286047002.5,N
1507959115.5,286047002.7,N
1507959135.3,286046998.5,N
1507959155.1,286046999.8,N
1507959175.9,286047000.8,N
1507959195.7,286047000.0,N
1507959215.5,286046998.3,N
1507959235.3,286046997.4,N
1507959255.2,286047000.3,N
1507959275.0,286047002.2,N
1507959275.9,286047002.2,N
1507959295.7,286047004.1,N
1507959315.6,286047004.6,N
1507959335.4,286047001.7,N
1507959355.2,286046998.5,N
1507959375.1,286046999.4,N
1507959376.0,286046999.4,N
1507959395.8,286046993.3,Y
1507959415.6,286046995.2,P
1507959435.5,286046994.4,N
1507959455.3,286046993.5,N
1507959475.1,286046992.7,N
1507959495.9,286046992.2,N
1507959515.7,286046991.7,Y
1507959535.5,286046997.1,P
1507959555.4,286046996.8,N
1507959575.2,286046997.6,N
1507959595.0,286046997.2,N
1507959595.9,286046997.2,N
1507959615.8,286046998.6,N
1507959635.6,286046998.7,N
1507959655.4,286046997.5,N
1507959675.3,286046996.3,Y
1507959695.1,286047001.2,P
1507959696.0,286047001.2,N
1507959715.8,286046999.2,N
1507959735.7,286046999.0,N
1507959755.5,286046999.5,N
1507959775.3,286046994.9,Y
1507959795.2,286046996.6,P
1507959815.9,286046999.6,N
1507959835.7,286046999.6,N
1507959855.6,286046998.5,N
1507959875.4,286046998.5,N
1507959895.2,286046998.7,N
1507959915.0,286046998.9,N
1507959916.0,286046998.9,N
1507959935.8,286046998.4,N
1507959955.6,286046998.2,N
1507959975.5,286047002.5,Y
1507959995.3,286047004.3,P
1507960015.1,286047003.3,N
1507960035.8,286047004.9,N
1507960055.7,286047004.8,N
1507960075.5,286047005.3,N
1507960095.3,286047008.4,Y
1507960115.2,286047006.0,P
1507960135.0,286047001.9,N
1507960135.9,286047001.9,N
1507960155.7,286047002.7,N
1507960175.6,286047002.5,N
1507960195.4,286047001.8,N
1507960215.2,286046998.6,N
1507960235.1,286046998.5,N
1507960236.0,286046998.5,N
1507960255.8,286047001.9,N
1507960275.6,286046999.9,N
1507960295.5,286046999.8,N
1507960315.3,286046998.2,N
1507960335.1,286046999.3,N
1507960355.9,286047000.3,N
1507960375.7,286047004.4,N
1507960395.5,286047001.9,N
1507960415.3,286047001.5,N
1507960435.2,286047000.1,N
1507960455.0,286047000.5,N
1507960455.9,286047000.5,N
1507960475.7,286046999.8,N
1507960495.6,286047002.3,N
1507960515.4,286047001.2,N
1507960535.2,286047001.1,N
1507960555.1,286046998.4,N
1507960556.0,286046998.4,N
1507960575.8,286046999.0,N
1507960595.6,286046998.6,N
1507960615.5,286046998.1,N
1507960635.3,286047004.1,N
1507960655.1,286047004.3,N
1507960675.9,286047002.4,N
1507960695.7,286047005.3,N
1507960715.5,286047006.9,Y
1507960735.4,286047008.9,P
1507960755.2,286047012.4,P
1507960775.0,286047013.7,N
1507960775.9,286047013.7,N
1507960795.8,286047013.1,N
